Time,TemperatureF,DewpointF,PressureIn,WindDirection,WindDirectionDegrees,WindSpeedMPH,WindSpeedGustMPH,Humidity,HourlyPrecipIn,Conditions,Clouds,dailyrainin,SoftwareType,DateUTC
2013-11-09 00:00:00,37.0,-99.9,-100.00,South,170,6.7,8.8,-999,0.00,,,0.00,CRBasic,2013-11-09 07:00:00,
2013-11-09 00:11:00,37.7,-99.9,-100.00,SSE,157,5.0,-999.0,-999,0.00,,,0.00,CRBasic,2013-11-09 07:11:00,
2013-11-09 00:20:00,32.7,-99.9,-100.00,SSE,155,3.9,-999.0,-999,0.00,,,0.00,CRBasic,2013-11-09 07:20:00,
2013-11-09 00:25:00,32.5,-99.9,-100.00,South,183,1.5,-999.0,-999,0.00,,,0.00,CRBasic,2013-11-09 07:25:00,
2013-11-09 00:30:00,32.2,-99.9,-100.00,WSW,241,2.0,5.0,-999,0.00,,,0.00,CRBasic,2013-11-09 07:30:00,
2013-11-09 00:40:00,33.7,-99.9,-100.00,South,186,5.8,-999.0,-999,0.00,,,0.00,CRBasic,2013-11-09 07:40:00,
2013-11-09 00:45:00,34.1,-99.9,-100.00,SSE,151,3.3,7.6,-999,0.00,,,0.00,CRBasic,2013-11-09 07:45:00,
2013-11-09 00:55:00,36.6,-99.9,-100.00,SSE,159,2.1,-999.0,-999,0.00,,,0.00,CRBasic,2013-11-09 07:55:00,
2013-11-09 01:00:00,37.8,-99.9,-100.00,South,182,7.5,9.0,-999,0.00,,,0.00,CRBasic,2013-11-09 08:00:00,
2013-11-09 01:10:00,38.5,-99.9,-100.00,SSW,212,5.8,-999.0,-999,0.00,,,0.00,CRBasic,2013-11-09 08:10:00,
2013-11-09 01:15:00,38.7,-99.9,-100.00,SSE,160,4.9,8.6,-999,0.00,,,0.00,CRBasic,2013-11-09 08:15:00,
2013-11-09 01:25:00,39.5,-99.9,-100.00,SSE,166,7.8,-999.0,-999,0.00,,,0.00,CRBasic,2013-11-09 08:25:00,
2013-11-09 01:30:00,40.1,-99.9,-100.00,SSE,156,6.6,9.1,-999,0.00,,,0.00,CRBasic,2013-11-09 08:30:00,
2013-11-09 01:40:00,38.9,-99.9,-100.00,SSW,200,4.7,-999.0,-999,0.00,,,0.00,CRBasic,2013-11-09 08:40:00,
2013-11-09 01:45:00,38.0,-99.9,-100.00,SSW,197,6.9,7.7,-999,0.00,,,0.00,CRBasic,2013-11-09 08:45:00,
2013-11-09 01:55:00,38.2,-99.9,-100.00,SSW,195,5.4,-999.0,-999,0.00,,,0.00,CRBasic,2013-11-09 08:55:00,
2013-11-09 02:00:00,38.9,-99.9,-100.00,SSE,167,3.6,7.2,-999,0.00,,,0.00,CRBasic,2013-11-09 09:00:00,
2013-11-09 02:11:00,38.8,-99.9,-100.00,North,354,2.7,-999.0,-999,0.00,,,0.00,CRBasic,2013-11-09 09:11:00,
2013-11-09 02:20:00,40.0,-99.9,-100.00,SSW,199,1.8,-999.0,-999,0.00,,,0.00,CRBasic,2013-11-09 09:20:00,
2013-11-09 02:25:00,40.6,-99.9,-100.00,WSW,257,1.1,-999.0,-999,0.00,,,0.00,CRBasic,2013-11-09 09:25:00,
2013-11-09 02:30:00,40.4,-99.9,-100.00,SSE,151,5.3,7.2,-999,0.00,,,0.00,CRBasic,2013-11-09 09:30:00,
2013-11-09 02:40:00,40.0,-99.9,-100.00,South,174,7.3,-999.0,-999,0.00,,,0.00,CRBasic,2013-11-09 09:40:00,
2013-11-09 02:45:00,42.5,-99.9,-100.00,SE,146,4.6,9.8,-999,0.00,,,0.00,CRBasic,2013-11-09 09:45:00,
2013-11-09 02:55:00,39.7,-99.9,-100.00,SSW,202,7.7,-999.0,-999,0.00,,,0.00,CRBasic,2013-11-09 09:55:00,
2013-11-09 03:00:00,40.0,-99.9,-100.00,SSW,206,4.3,10.7,-999,0.00,,,0.00,CRBasic,2013-11-09 10:00:00,
2013-11-09 03:10:00,40.4,-99.9,-100.00,South,191,6.2,-999.0,-999,0.00,,,0.00,CRBasic,2013-11-09 10:10:00,
2013-11-09 03:15:00,39.6,-99.9,-100.00,SSW,213,4.9,10.6,-999,0.00,,,0.00,CRBasic,2013-11-09 10:15:00,
2013-11-09 03:25:00,39.1,-99.9,-100.00,South,178,6.4,-999.0,-999,0.00,,,0.00,CRBasic,2013-11-09 10:25:00,
2013-11-09 03:30:00,39.4,-99.9,-100.00,SW,216,6.8,10.7,-999,0.00,,,0.00,CRBasic,2013-11-09 10:30:00,
2013-11-09 03:40:00,39.5,-99.9,-100.00,SSE,159,3.7,-999.0,-999,0.00,,,0.00,CRBasic,2013-11-09 10:40:00,
2013-11-09 03:45:00,37.6,-99.9,-100.00,SE,146,4.3,9.6,-999,0.00,,,0.00,CRBasic,2013-11-09 10:45:00,
2013-11-09 03:55:00,38.8,-99.9,-100.00,SSE,167,5.3,-999.0,-999,0.00,,,0.00,CRBasic,2013-11-09 10:55:00,
2013-11-09 04:00:00,38.2,-99.9,-100.00,South,178,3.2,6.5,-999,0.00,,,0.00,CRBasic,2013-11-09 11:00:00,
2013-11-09 04:10:00,38.4,-99.9,-100.00,South,182,3.7,-999.0,-999,0.00,,,0.00,CRBasic,2013-11-09 11:10:00,
2013-11-09 04:15:00,38.4,-99.9,-100.00,SW,222,5.0,7.9,-999,0.00,,,0.00,CRBasic,2013-11-09 11:15:00,
2013-11-09 04:25:00,40.5,-99.9,-100.00,South,188,5.7,-999.0,-999,0.00,,,0.00,CRBasic,2013-11-09 11:25:00,
2013-11-09 04:30:00,39.8,-99.9,-100.00,SW,223,5.0,10.2,-999,0.00,,,0.00,CRBasic,2013-11-09 11:30:00,
2013-11-09 04:40:00,40.0,-99.9,-100.00,SSE,155,3.7,-999.0,-999,0.00,,,0.00,CRBasic,2013-11-09 11:40:00,
2013-11-09 04:45:00,41.5,-99.9,-100.00,SW,214,6.6,9.8,-999,0.00,,,0.00,CRBasic,2013-11-09 11:45:00,
2013-11-09 04:55:00,40.2,-99.9,-100.00,SSE,159,6.2,-999.0,-999,0.00,,,0.00,CRBasic,2013-11-09 11:55:00,
2013-11-09 05:01:00,40.1,-99.9,-100.00,SSW,195,6.5,9.8,-999,0.00,,,0.00,CRBasic,2013-11-09 12:01:00,
2013-11-09 05:10:00,41.3,-99.9,-100.00,SSW,208,7.5,-999.0,-999,0.00,,,0.00,CRBasic,2013-11-09 12:10:00,
2013-11-09 05:15:00,41.3,-99.9,-100.00,South,191,5.0,10.2,-999,0.00,,,0.00,CRBasic,2013-11-09 12:15:00,
2013-11-09 05:25:00,41.1,-99.9,-100.00,SSW,206,6.9,-999.0,-999,0.00,,,0.00,CRBasic,2013-11-09 12:25:00,
2013-11-09 05:30:00,40.9,-99.9,-100.00,SW,214,4.7,9.5,-999,0.00,,,0.00,CRBasic,2013-11-09 12:30:00,
2013-11-09 05:40:00,39.8,-99.9,-100.00,SW,216,7.4,-999.0,-999,0.00,,,0.00,CRBasic,2013-11-09 12:40:00,
2013-11-09 05:45:00,40.0,-99.9,-100.00,South,180,5.7,8.4,-999,0.00,,,0.00,CRBasic,2013-11-09 12:45:00,
2013-11-09 05:55:00,40.0,-99.9,-100.00,South,177,6.4,-999.0,-999,0.00,,,0.00,CRBasic,2013-11-09 12:55:00,
2013-11-09 06:00:00,40.0,-99.9,-100.00,SSW,198,7.3,11.5,-999,0.00,,,0.00,CRBasic,2013-11-09 13:00:00,
2013-11-09 06:10:00,39.3,-99.9,-100.00,SSW,193,4.6,-999.0,-999,0.00,,,0.00,CRBasic,2013-11-09 13:10:00,
2013-11-09 06:15:00,39.5,-99.9,-100.00,SSW,203,8.0,11.0,-999,0.00,,,0.00,CRBasic,2013-11-09 13:15:00,
2013-11-09 06:25:00,38.8,-99.9,-100.00,SSW,198,6.7,-999.0,-999,0.00,,,0.00,CRBasic,2013-11-09 13:25:00,
2013-11-09 06:35:00,37.2,-99.9,-100.00,SSE,163,3.6,-999.0,-999,0.00,,,0.00,CRBasic,2013-11-09 13:35:00,
2013-11-09 06:40:00,37.7,-99.9,-100.00,SSW,198,4.9,-999.0,-999,0.00,,,0.00,CRBasic,2013-11-09 13:40:00,
2013-11-09 06:45:00,37.8,-99.9,-100.00,SW,217,5.4,6.9,-999,0.00,,,0.00,CRBasic,2013-11-09 13:45:00,
2013-11-09 06:55:00,37.8,-99.9,-100.00,SSW,192,4.3,-999.0,-999,0.00,,,0.00,CRBasic,2013-11-09 13:55:00,
2013-11-09 07:01:00,37.0,-99.9,-100.00,South,183,2.9,8.0,-999,0.00,,,0.00,CRBasic,2013-11-09 14:01:00,
2013-11-09 07:10:00,38.7,-99.9,-100.00,SSW,203,6.8,-999.0,-999,0.00,,,0.00,CRBasic,2013-11-09 14:10:00,
2013-11-09 07:15:00,40.2,-99.9,-100.00,South,181,5.5,8.6,-999,0.00,,,0.00,CRBasic,2013-11-09 14:15:00,
2013-11-09 07:25:00,40.9,-99.9,-100.00,SSW,211,3.1,-999.0,-999,0.00,,,0.00,CRBasic,2013-11-09 14:25:00,
2013-11-09 07:30:00,41.6,-99.9,-100.00,SSW,205,3.3,8.3,-999,0.00,,,0.00,CRBasic,2013-11-09 14:30:00,
2013-11-09 07:40:00,43.6,-99.9,-100.00,SE,140,0.2,-999.0,-999,0.00,,,0.00,CRBasic,2013-11-09 14:40:00,
2013-11-09 07:45:00,44.3,-99.9,-100.00,South,179,1.6,5.0,-999,0.00,,,0.00,CRBasic,2013-11-09 14:45:00,
2013-11-09 07:55:00,47.8,-99.9,-100.00,SE,137,11.9,-999.0,-999,0.00,,,0.00,CRBasic,2013-11-09 14:55:00,
2013-11-09 08:00:00,48.8,-99.9,-100.00,SE,138,10.7,12.4,-999,0.00,,,0.00,CRBasic,2013-11-09 15:00:00,
2013-11-09 08:10:00,49.1,-99.9,-100.00,SE,135,8.7,-999.0,-999,0.00,,,0.00,CRBasic,2013-11-09 15:10:00,
2013-11-09 08:15:00,49.4,-99.9,-100.00,SE,144,12.1,15.3,-999,0.00,,,0.00,CRBasic,2013-11-09 15:15:00,
2013-11-09 08:25:00,49.5,-99.9,-100.00,SE,144,8.9,-999.0,-999,0.00,,,0.00,CRBasic,2013-11-09 15:25:00,
2013-11-09 08:30:00,49.8,-99.9,-100.00,SE,144,10.3,13.4,-999,0.00,,,0.00,CRBasic,2013-11-09 15:30:00,
2013-11-09 08:40:00,50.7,-99.9,-100.00,SE,131,13.3,-999.0,-999,0.00,,,0.00,CRBasic,2013-11-09 15:40:00,
2013-11-09 08:45:00,51.2,-99.9,-100.00,SE,133,15.3,17.4,-999,0.00,,,0.00,CRBasic,2013-11-09 15:45:00,
2013-11-09 08:55:00,50.7,-99.9,-100.00,SSE,151,17.3,-999.0,-999,0.00,,,0.00,CRBasic,2013-11-09 15:55:00,
2013-11-09 09:00:00,51.6,-99.9,-100.00,SE,131,15.3,20.3,-999,0.00,,,0.00,CRBasic,2013-11-09 16:00:00,
2013-11-09 09:10:00,52.3,-99.9,-100.00,SE,139,15.8,-999.0,-999,0.00,,,0.00,CRBasic,2013-11-09 16:10:00,
2013-11-09 09:15:00,53.3,-99.9,-100.00,SSE,147,17.1,19.6,-999,0.00,,,0.00,CRBasic,2013-11-09 16:15:00,
2013-11-09 09:25:00,54.0,-99.9,-100.00,SE,137,15.2,-999.0,-999,0.00,,,0.00,CRBasic,2013-11-09 16:25:00,
2013-11-09 09:30:00,54.2,-99.9,-100.00,SE,144,14.9,19.5,-999,0.00,,,0.00,CRBasic,2013-11-09 16:30:00,
2013-11-09 09:40:00,54.1,-99.9,-100.00,SE,134,19.3,-999.0,-999,0.00,,,0.00,CRBasic,2013-11-09 16:40:00,
2013-11-09 09:45:00,54.1,-99.9,-100.00,ESE,117,16.7,21.6,-999,0.00,,,0.00,CRBasic,2013-11-09 16:45:00,
2013-11-09 09:51:00,54.8,-99.9,-100.00,SE,125,13.4,-999.0,-999,0.00,,,0.00,CRBasic,2013-11-09 16:51:00,
2013-11-09 10:00:00,56.0,-99.9,-100.00,SSE,162,9.4,19.9,-999,0.00,,,0.00,CRBasic,2013-11-09 17:00:00,
2013-11-09 10:05:00,56.7,-99.9,-100.00,ESE,105,14.1,-999.0,-999,0.00,,,0.00,CRBasic,2013-11-09 17:05:00,
2013-11-09 10:15:00,56.8,-99.9,-100.00,SE,133,12.2,19.6,-999,0.00,,,0.00,CRBasic,2013-11-09 17:15:00,
2013-11-09 10:25:00,57.9,-99.9,-100.00,SE,146,13.2,-999.0,-999,0.00,,,0.00,CRBasic,2013-11-09 17:25:00,
2013-11-09 10:30:00,57.9,-99.9,-100.00,SE,143,10.9,19.8,-999,0.00,,,0.00,CRBasic,2013-11-09 17:30:00,
2013-11-09 10:40:00,59.3,-99.9,-100.00,SE,139,7.2,-999.0,-999,0.00,,,0.00,CRBasic,2013-11-09 17:40:00,
2013-11-09 10:45:00,60.2,-99.9,-100.00,SSE,154,14.0,17.8,-999,0.00,,,0.00,CRBasic,2013-11-09 17:45:00,
2013-11-09 10:55:00,60.9,-99.9,-100.00,SE,136,13.8,-999.0,-999,0.00,,,0.00,CRBasic,2013-11-09 17:55:00,
2013-11-09 11:00:00,61.2,-99.9,-100.00,SSE,161,12.6,18.2,-999,0.00,,,0.00,CRBasic,2013-11-09 18:00:00,
2013-11-09 11:10:00,60.4,-99.9,-100.00,SE,132,14.9,-999.0,-999,0.00,,,0.00,CRBasic,2013-11-09 18:10:00,
2013-11-09 11:15:00,61.6,-99.9,-100.00,SE,137,7.5,17.3,-999,0.00,,,0.00,CRBasic,2013-11-09 18:15:00,
2013-11-09 11:25:00,59.8,-99.9,-100.00,SE,141,11.0,-999.0,-999,0.00,,,0.00,CRBasic,2013-11-09 18:25:00,
2013-11-09 11:30:00,60.2,-99.9,-100.00,SE,142,11.7,18.2,-999,0.00,,,0.00,CRBasic,2013-11-09 18:30:00,
2013-11-09 11:40:00,60.5,-99.9,-100.00,SE,136,10.0,-999.0,-999,0.00,,,0.00,CRBasic,2013-11-09 18:40:00,
2013-11-09 11:47:00,60.2,-99.9,-100.00,SE,139,16.0,18.4,-999,0.00,,,0.00,CRBasic,2013-11-09 18:47:00,
2013-11-09 11:55:00,60.7,-99.9,-100.00,SE,138,8.7,-999.0,-999,0.00,,,0.00,CRBasic,2013-11-09 18:55:00,
2013-11-09 12:00:00,61.7,-99.9,-100.00,SSE,155,10.0,17.7,-999,0.00,,,0.00,CRBasic,2013-11-09 19:00:00,
2013-11-09 12:10:00,61.7,-99.9,-100.00,SE,136,11.8,-999.0,-999,0.00,,,0.00,CRBasic,2013-11-09 19:10:00,
2013-11-09 12:15:00,62.0,-99.9,-100.00,SE,132,8.7,16.2,-999,0.00,,,0.00,CRBasic,2013-11-09 19:15:00,
2013-11-09 12:25:00,62.5,-99.9,-100.00,ESE,121,16.3,-999.0,-999,0.00,,,0.00,CRBasic,2013-11-09 19:25:00,
2013-11-09 12:30:00,60.9,-99.9,-100.00,SE,129,15.3,16.3,-999,0.00,,,0.00,CRBasic,2013-11-09 19:30:00,
2013-11-09 12:40:00,62.2,-99.9,-100.00,ESE,118,10.9,-999.0,-999,0.00,,,0.00,CRBasic,2013-11-09 19:40:00,
2013-11-09 12:45:00,61.4,-99.9,-100.00,SE,144,12.1,16.6,-999,0.00,,,0.00,CRBasic,2013-11-09 19:45:00,
2013-11-09 12:55:00,61.1,-99.9,-100.00,SE,146,11.0,-999.0,-999,0.00,,,0.00,CRBasic,2013-11-09 19:55:00,
2013-11-09 13:00:00,61.4,-99.9,-100.00,SSE,152,12.1,19.0,-999,0.00,,,0.00,CRBasic,2013-11-09 20:00:00,
2013-11-09 13:10:00,60.9,-99.9,-100.00,SE,133,10.9,-999.0,-999,0.00,,,0.00,CRBasic,2013-11-09 20:10:00,
2013-11-09 13:15:00,61.0,-99.9,-100.00,South,172,12.8,18.0,-999,0.00,,,0.00,CRBasic,2013-11-09 20:15:00,
2013-11-09 13:25:00,60.7,-99.9,-100.00,SE,140,10.2,-999.0,-999,0.00,,,0.00,CRBasic,2013-11-09 20:25:00,
2013-11-09 13:30:00,60.8,-99.9,-100.00,SE,124,11.5,16.7,-999,0.00,,,0.00,CRBasic,2013-11-09 20:30:00,
2013-11-09 13:40:00,60.9,-99.9,-100.00,ESE,109,9.7,-999.0,-999,0.00,,,0.00,CRBasic,2013-11-09 20:40:00,
2013-11-09 13:45:00,60.5,-99.9,-100.00,SSE,149,5.4,16.8,-999,0.00,,,0.00,CRBasic,2013-11-09 20:45:00,
2013-11-09 13:55:00,61.2,-99.9,-100.00,SE,134,7.7,-999.0,-999,0.00,,,0.00,CRBasic,2013-11-09 20:55:00,
2013-11-09 14:00:00,60.0,-99.9,-100.00,SE,135,14.2,16.4,-999,0.00,,,0.00,CRBasic,2013-11-09 21:00:00,
2013-11-09 14:10:00,59.8,-99.9,-100.00,SE,124,14.0,-999.0,-999,0.00,,,0.00,CRBasic,2013-11-09 21:10:00,
2013-11-09 14:15:00,59.5,-99.9,-100.00,ESE,119,8.7,18.1,-999,0.00,,,0.00,CRBasic,2013-11-09 21:15:00,
2013-11-09 14:25:00,59.5,-99.9,-100.00,SSW,193,8.5,-999.0,-999,0.00,,,0.00,CRBasic,2013-11-09 21:25:00,
2013-11-09 14:30:00,59.1,-99.9,-100.00,ESE,107,12.6,15.6,-999,0.00,,,0.00,CRBasic,2013-11-09 21:30:00,
2013-11-09 14:41:00,59.1,-99.9,-100.00,SE,144,12.6,-999.0,-999,0.00,,,0.00,CRBasic,2013-11-09 21:41:00,
2013-11-09 14:50:00,58.1,-99.9,-100.00,SE,138,7.5,-999.0,-999,0.00,,,0.00,CRBasic,2013-11-09 21:50:00,
2013-11-09 14:55:00,58.8,-99.9,-100.00,SE,146,4.2,-999.0,-999,0.00,,,0.00,CRBasic,2013-11-09 21:55:00,
2013-11-09 15:00:00,57.6,-99.9,-100.00,SSE,153,12.2,15.4,-999,0.00,,,0.00,CRBasic,2013-11-09 22:00:00,
2013-11-09 15:10:00,56.1,-99.9,-100.00,SSE,157,11.0,-999.0,-999,0.00,,,0.00,CRBasic,2013-11-09 22:10:00,
2013-11-09 15:15:00,56.2,-99.9,-100.00,South,175,12.0,14.0,-999,0.00,,,0.00,CRBasic,2013-11-09 22:15:00,
2013-11-09 15:25:00,55.5,-99.9,-100.00,South,181,7.6,-999.0,-999,0.00,,,0.00,CRBasic,2013-11-09 22:25:00,
2013-11-09 15:30:00,54.8,-99.9,-100.00,SE,128,5.1,12.2,-999,0.00,,,0.00,CRBasic,2013-11-09 22:30:00,
2013-11-09 15:40:00,54.2,-99.9,-100.00,SSW,207,4.2,-999.0,-999,0.00,,,0.00,CRBasic,2013-11-09 22:40:00,
2013-11-09 15:45:00,53.7,-99.9,-100.00,SSE,151,6.7,11.1,-999,0.00,,,0.00,CRBasic,2013-11-09 22:45:00,
2013-11-09 15:55:00,52.3,-99.9,-100.00,SSE,155,7.3,-999.0,-999,0.00,,,0.00,CRBasic,2013-11-09 22:55:00,
2013-11-09 16:00:00,51.9,-99.9,-100.00,SSE,167,6.3,11.5,-999,0.00,,,0.00,CRBasic,2013-11-09 23:00:00,
2013-11-09 16:10:00,49.9,-99.9,-100.00,South,184,7.2,-999.0,-999,0.00,,,0.00,CRBasic,2013-11-09 23:10:00,
2013-11-09 16:15:00,49.1,-99.9,-100.00,SSE,167,7.3,10.0,-999,0.00,,,0.00,CRBasic,2013-11-09 23:15:00,
2013-11-09 16:25:00,48.8,-99.9,-100.00,SSW,202,5.3,-999.0,-999,0.00,,,0.00,CRBasic,2013-11-09 23:25:00,
2013-11-09 16:30:00,48.3,-99.9,-100.00,South,188,4.0,13.6,-999,0.00,,,0.00,CRBasic,2013-11-09 23:30:00,
2013-11-09 16:40:00,47.4,-99.9,-100.00,SSW,206,5.0,-999.0,-999,0.00,,,0.00,CRBasic,2013-11-09 23:40:00,
2013-11-09 16:45:00,47.1,-99.9,-100.00,SSW,204,3.6,8.3,-999,0.00,,,0.00,CRBasic,2013-11-09 23:45:00,
2013-11-09 16:55:00,45.7,-99.9,-100.00,SSW,213,4.4,-999.0,-999,0.00,,,0.00,CRBasic,2013-11-09 23:55:00,
2013-11-09 17:00:00,45.3,-99.9,-100.00,South,181,4.6,7.2,-999,0.00,,,0.00,CRBasic,2013-11-10 00:00:00,
2013-11-09 17:10:00,44.5,-99.9,-100.00,SSW,206,7.8,-999.0,-999,0.00,,,0.00,CRBasic,2013-11-10 00:10:00,
2013-11-09 17:15:00,44.8,-99.9,-100.00,South,184,6.9,7.9,-999,0.00,,,0.00,CRBasic,2013-11-10 00:15:00,
2013-11-09 17:25:00,44.0,-99.9,-100.00,South,180,5.0,-999.0,-999,0.00,,,0.00,CRBasic,2013-11-10 00:25:00,
2013-11-09 17:30:00,43.8,-99.9,-100.00,South,179,4.0,8.2,-999,0.00,,,0.00,CRBasic,2013-11-10 00:30:00,
2013-11-09 17:40:00,43.0,-99.9,-100.00,SSW,200,3.5,-999.0,-999,0.00,,,0.00,CRBasic,2013-11-10 00:40:00,
2013-11-09 17:45:00,42.7,-99.9,-100.00,SSW,194,4.8,6.2,-999,0.00,,,0.00,CRBasic,2013-11-10 00:45:00,
2013-11-09 17:55:00,43.5,-99.9,-100.00,SSE,168,5.4,-999.0,-999,0.00,,,0.00,CRBasic,2013-11-10 00:55:00,
2013-11-09 18:00:00,43.5,-99.9,-100.00,SW,223,2.9,10.1,-999,0.00,,,0.00,CRBasic,2013-11-10 01:00:00,
2013-11-09 18:10:00,43.8,-99.9,-100.00,SE,145,4.3,-999.0,-999,0.00,,,0.00,CRBasic,2013-11-10 01:10:00,
2013-11-09 18:15:00,43.6,-99.9,-100.00,South,178,6.7,10.7,-999,0.00,,,0.00,CRBasic,2013-11-10 01:15:00,
2013-11-09 18:25:00,43.5,-99.9,-100.00,SSE,154,3.8,-999.0,-999,0.00,,,0.00,CRBasic,2013-11-10 01:25:00,
2013-11-09 18:30:00,43.4,-99.9,-100.00,SSW,202,2.8,10.1,-999,0.00,,,0.00,CRBasic,2013-11-10 01:30:00,
2013-11-09 18:40:00,42.9,-99.9,-100.00,South,172,4.5,-999.0,-999,0.00,,,0.00,CRBasic,2013-11-10 01:40:00,
2013-11-09 18:45:00,43.9,-99.9,-100.00,WSW,256,3.6,10.9,-999,0.00,,,0.00,CRBasic,2013-11-10 01:45:00,
2013-11-09 18:55:00,43.2,-99.9,-100.00,SW,220,7.1,-999.0,-999,0.00,,,0.00,CRBasic,2013-11-10 01:55:00,
2013-11-09 19:00:00,42.8,-99.9,-100.00,South,185,8.4,11.0,-999,0.00,,,0.00,CRBasic,2013-11-10 02:00:00,
2013-11-09 19:10:00,42.4,-99.9,-100.00,SSW,201,6.2,-999.0,-999,0.00,,,0.00,CRBasic,2013-11-10 02:10:00,
2013-11-09 19:15:00,42.1,-99.9,-100.00,SW,228,7.1,11.0,-999,0.00,,,0.00,CRBasic,2013-11-10 02:15:00,
2013-11-09 19:25:00,41.5,-99.9,-100.00,SSW,207,7.1,-999.0,-999,0.00,,,0.00,CRBasic,2013-11-10 02:25:00,
2013-11-09 19:30:00,41.3,-99.9,-100.00,South,186,7.3,10.2,-999,0.00,,,0.00,CRBasic,2013-11-10 02:30:00,
2013-11-09 19:40:00,40.5,-99.9,-100.00,SSW,211,4.1,-999.0,-999,0.00,,,0.00,CRBasic,2013-11-10 02:40:00,
2013-11-09 19:45:00,40.0,-99.9,-100.00,SSW,212,4.6,8.5,-999,0.00,,,0.00,CRBasic,2013-11-10 02:45:00,
2013-11-09 19:55:00,39.8,-99.9,-100.00,SSW,206,5.2,-999.0,-999,0.00,,,0.00,CRBasic,2013-11-10 02:55:00,
2013-11-09 20:00:00,39.6,-99.9,-100.00,SSW,206,3.7,9.1,-999,0.00,,,0.00,CRBasic,2013-11-10 03:00:00,
2013-11-09 20:10:00,39.3,-99.9,-100.00,SSW,205,7.6,-999.0,-999,0.00,,,0.00,CRBasic,2013-11-10 03:10:00,
2013-11-09 20:15:00,39.1,-99.9,-100.00,SSW,205,6.7,9.7,-999,0.00,,,0.00,CRBasic,2013-11-10 03:15:00,
2013-11-09 20:25:00,38.9,-99.9,-100.00,SW,229,7.3,-999.0,-999,0.00,,,0.00,CRBasic,2013-11-10 03:25:00,
2013-11-09 20:30:00,39.1,-99.9,-100.00,SW,221,4.2,8.8,-999,0.00,,,0.00,CRBasic,2013-11-10 03:30:00,
2013-11-09 20:40:00,38.4,-99.9,-100.00,South,183,3.3,-999.0,-999,0.00,,,0.00,CRBasic,2013-11-10 03:40:00,
2013-11-09 20:45:00,38.6,-99.9,-100.00,SSW,202,5.8,7.1,-999,0.00,,,0.00,CRBasic,2013-11-10 03:45:00,
2013-11-09 20:55:00,38.6,-99.9,-100.00,SW,225,6.3,-999.0,-999,0.00,,,0.00,CRBasic,2013-11-10 03:55:00,
2013-11-09 21:00:00,38.4,-99.9,-100.00,SW,226,6.3,9.4,-999,0.00,,,0.00,CRBasic,2013-11-10 04:00:00,
2013-11-09 21:10:00,37.7,-99.9,-100.00,SSW,202,6.5,-999.0,-999,0.00,,,0.00,CRBasic,2013-11-10 04:10:00,
2013-11-09 21:15:00,37.3,-99.9,-100.00,SSW,194,8.2,9.6,-999,0.00,,,0.00,CRBasic,2013-11-10 04:15:00,
2013-11-09 21:30:00,37.2,-99.9,-100.00,South,190,5.5,10.2,-999,0.00,,,0.00,CRBasic,2013-11-10 04:30:00,
2013-11-09 21:40:00,36.7,-99.9,-100.00,SSE,166,8.8,-999.0,-999,0.00,,,0.00,CRBasic,2013-11-10 04:40:00,
2013-11-09 21:45:00,36.6,-99.9,-100.00,SSW,211,7.8,10.3,-999,0.00,,,0.00,CRBasic,2013-11-10 04:45:00,
2013-11-09 21:55:00,36.5,-99.9,-100.00,SSW,195,8.7,-999.0,-999,0.00,,,0.00,CRBasic,2013-11-10 04:55:00,
2013-11-09 22:00:00,36.7,-99.9,-100.00,SW,220,6.4,11.9,-999,0.00,,,0.00,CRBasic,2013-11-10 05:00:00,
2013-11-09 22:05:00,36.5,-99.9,-100.00,SSW,210,7.6,-999.0,-999,0.00,,,0.00,CRBasic,2013-11-10 05:05:00,
2013-11-09 22:10:00,36.4,-99.9,-100.00,SSW,209,6.9,-999.0,-999,0.00,,,0.00,CRBasic,2013-11-10 05:10:00,
2013-11-09 22:15:00,36.1,-99.9,-100.00,SW,215,8.2,10.5,-999,0.00,,,0.00,CRBasic,2013-11-10 05:15:00,
2013-11-09 22:20:00,36.1,-99.9,-100.00,SSW,209,7.2,-999.0,-999,0.00,,,0.00,CRBasic,2013-11-10 05:20:00,
2013-11-09 22:25:00,36.0,-99.9,-100.00,SSW,207,7.3,-999.0,-999,0.00,,,0.00,CRBasic,2013-11-10 05:25:00,
2013-11-09 22:30:00,36.0,-99.9,-100.00,SSW,207,7.2,9.7,-999,0.00,,,0.00,CRBasic,2013-11-10 05:30:00,
2013-11-09 22:40:00,35.6,-99.9,-100.00,SSE,155,5.2,-999.0,-999,0.00,,,0.00,CRBasic,2013-11-10 05:40:00,
2013-11-09 22:45:00,35.3,-99.9,-100.00,SW,221,6.8,8.6,-999,0.00,,,0.00,CRBasic,2013-11-10 05:45:00,
2013-11-09 22:55:00,35.1,-99.9,-100.00,SSW,205,8.1,-999.0,-999,0.00,,,0.00,CRBasic,2013-11-10 05:55:00,
2013-11-09 23:00:00,35.3,-99.9,-100.00,SSW,205,7.7,9.5,-999,0.00,,,0.00,CRBasic,2013-11-10 06:00:00,
2013-11-09 23:10:00,35.2,-99.9,-100.00,SSW,208,7.3,-999.0,-999,0.00,,,0.00,CRBasic,2013-11-10 06:10:00,
2013-11-09 23:15:00,35.1,-99.9,-100.00,SW,219,9.4,10.5,-999,0.00,,,0.00,CRBasic,2013-11-10 06:15:00,
2013-11-09 23:25:00,35.6,-99.9,-100.00,SSW,211,7.3,-999.0,-999,0.00,,,0.00,CRBasic,2013-11-10 06:25:00,
2013-11-09 23:30:00,35.5,-99.9,-100.00,SSW,201,6.8,11.3,-999,0.00,,,0.00,CRBasic,2013-11-10 06:30:00,
2013-11-09 23:35:00,35.6,-99.9,-100.00,SSW,198,7.5,-999.0,-999,0.00,,,0.00,CRBasic,2013-11-10 06:35:00,
2013-11-09 23:40:00,35.7,-99.9,-100.00,SSW,194,4.6,-999.0,-999,0.00,,,0.00,CRBasic,2013-11-10 06:40:00,
2013-11-09 23:45:00,35.5,-99.9,-100.00,SSW,196,6.0,10.1,-999,0.00,,,0.00,CRBasic,2013-11-10 06:45:00,
2013-11-09 23:55:00,35.2,-99.9,-100.00,SSW,208,10.6,-999.0,-999,0.00,,,0.00,CRBasic,2013-11-10 06:55:00,